Regional Weather Roundup
Issued by NWS

Home | Current Version | Previous Version | Text Only | Print | Product List | Glossary Off
Versions: 1 2 3 4 5 6 7 8 9 10 11 12 13 14 15 16 17 18 19 20 21 22 23 24 25 26 27 28 29 30 31 32 33 34 35 36 37 38 39 40 41 42 43 44 45 46 47 48 49 50

356
ASUS45 KPSR 280710
RWRAZ

ARIZONA HOURLY REGIONAL WEATHER ROUNDUP
NATIONAL WEATHER SERVICE PHOENIX AZ
1200 AM MST WED JUN 28 2017

NOTE: FAIR INDICATES FEW OR NO CLOUDS BELOW 12,000 FEET WITH NO
SIGNIFICANT WEATHER AND/OR OBSTRUCTIONS TO VISIBILITY.

AZZ001>003-036-280800-
NORTHWEST ARIZONA

CITY           SKY/WX    TMP DP  RH WIND       PRES   REMARKS
BULLHEAD CITY  CLEAR     95  19   6 SE8       29.62S
KINGMAN        CLEAR     77  14   9 S7        29.86S
$$

AZZ004>008-015-016-018-280800-
NORTH CENTRAL ARIZONA

CITY           SKY/WX    TMP DP  RH WIND       PRES   REMARKS
GRAND CANYON   CLEAR     51  15  23 E3        30.13S
PRESCOTT       CLEAR     72  12  10 S10       30.03F
FLAGSTAFF      CLEAR     54  11  18 CALM      30.18S
PAYSON         CLEAR     68  19  15 CALM      30.08F
PAGE           CLEAR     85  19   9 S6        29.87S
$$

AZZ009>014-017-280800-
NORTHEAST ARIZONA

CITY           SKY/WX    TMP DP  RH WIND       PRES   REMARKS
WINSLOW        CLEAR     72  18  13 SW15      30.00S
SAINT JOHNS    CLEAR     66  16  14 S9        30.09R
WINDOW ROCK    CLEAR     66  17  15 SW3       30.13S
SHOW LOW       CLEAR     63  16  16 S12       30.17S
$$

AZZ540-542>544-546-548-280800-
GREATER PHOENIX AREA

CITY           SKY/WX    TMP DP  RH WIND       PRES   REMARKS
PHOENIX        CLEAR     96  46  18 W13       29.72R
BUCKEYE        CLEAR     88  45  22 SW6       29.74R
LUKE AFB       CLEAR     92  49  22 S14       29.72R
DEER VALLEY    CLEAR     93  41  16 SW10      29.75R
SCOTTSDALE     CLEAR     94  36  13 W7        29.78R
MESA-GATEWAY   CLEAR     90  34  13 SW6       29.77R
$$

AZZ539-553-280800-
SOUTHWEST MARICOPA COUNTY AND PINAL COUNTY

CITY           SKY/WX    TMP DP  RH WIND       PRES   REMARKS
CASA GRANDE    CLEAR     88  43  20 SW9       29.78R
GILA BEND      FAIR      93  46  19 SW12      29.73R
$$

AZZ503-504-507>509-280800-
SOUTHEAST ARIZONA

CITY           SKY/WX    TMP DP  RH WIND       PRES   REMARKS
TUCSON         CLEAR     88  37  16 CALM      29.92R
DAVIS-MONTHAN  CLEAR     85  36  17 SW8       29.90S
NOGALES        CLEAR     73  35  25 S5        30.02S
SIERRA VISTA   CLEAR     81  35  19 SW10      30.08S
DOUGLAS        PTCLDY    75  49  39 SE7       30.03S
SAFFORD        CLEAR     80  23  12 NW10      29.89F
$$

AZZ532-280800-
SOUTHWEST ARIZONA

CITY           SKY/WX    TMP DP  RH WIND       PRES   REMARKS
YUMA           CLEAR     85  59  41 S10       29.71R
$$

CAZ041-043-047-048-061-525>527-560>570-280800-
SOUTHERN CALIFORNIA

CITY           SKY/WX    TMP DP  RH WIND       PRES   REMARKS
DOWNTOWN L.A.    N/A    N/A N/A N/A CALM      29.86F
L.A. AIRPORT   PTCLDY    64  60  87 S7        29.86F
SAN DIEGO      MOCLDY    65  61  87 VRB3      29.90S
BURBANK        CLEAR     69  55  60 E3        29.86F
ONTARIO        CLEAR     69  51  52 W5        29.87S
RIVERSIDE      CLEAR     70  51  51 W3        29.88S
PALM SPRINGS   CLEAR     88  32  13 SE7       29.68S
EL CENTRO NAS  CLEAR     88  19   8 W14       29.69S
IMPERIAL       CLEAR     84  31  14 W13       29.67R
BLYTHE         CLEAR     91  30  11 S14       29.66R
NEEDLES        CLEAR     98  13   4 E6        29.66R
$$

NVZ020-UTZ003-280800-
SOUTHERN NEVADA-UTAH

CITY           SKY/WX    TMP DP  RH WIND       PRES   REMARKS
LAS VEGAS      CLEAR     92  18   6 SW8       29.71S
SALT LAKE CITY CLEAR     73  37  27 S6        29.86R
$$

NMZ009-TXZ055-280800-
NEW MEXICO-WEST TEXAS

CITY           SKY/WX    TMP DP  RH WIND       PRES   REMARKS
ALBUQUERQUE    PTCLDY    73  42  32 S9        30.02R
EL PASO        PTCLDY    83  55  38 SW8       29.96S
$$


........................KEY........................
SKY/WX - SKY CONDITION/WEATHER
TMP    - TEMPERATURE IN FAHRENHEIT
DP     - DEW POINT IN FAHRENHEIT
RH     - RELATIVE HUMIDITY IN PERCENT
WIND   - DIRECTION AND SPEED IN MILES PER HOUR (MPH)
VRB    - VARIABLE WIND DIRECTION
PRES   - MEAN SEA LEVEL PRESSURE IN INCHES OF MERCURY
         F - FALLING PRESSURE   R - RISING PRESSURE
         S - STEADY PRESSURE
VSB    - VISIBILITY IN MILES
HX     - HEAT INDEX IN FAHRENHEIT
WCI    - WIND CHILL INDEX IN FAHRENHEIT
TC     - TEMPERATURE IN CELSIUS WHICH IS ALSO KNOWN AS
         TEMPERATURE IN CENTIGRADE
AFB    - AIR FORCE BASE
         LUKE AFB IS LUKE AIR FORCE BASE
         DAVIS-MONTHAN IS DAVIS-MONTHAN AIR FORCE BASE
NAS    - NAVAL AIR STATION
         EL CENTRO NAS IS EL CENTRO NAVAL AIR STATION
N/A    - NOT AVAILABLE





USA.gov is the U.S. government's official web portal to all federal, state and local government web resources and services.